Miscellaneous Local Product
Issued by NWS North Platte, NE

Home | Current Version | Previous Version | Graphics & Text | Print | Product List | Glossary On
Versions: 1 2 3 4 5 6 7 8 9 10 11 12 13 14 15 16 17 18 19 20 21 22 23 24 25 26 27 28 29 30 31 32 33 34 35 36 37 38 39 40 41 42 43 44 45 46 47 48 49 50
000
AXUS43 KLBF 260810
MISLBF


WESTERN AND NORTH CENTRAL NEBRASKA HOURLY WEATHER ROUNDUP
NATIONAL WEATHER SERVICE NORTH PLATTE NE
300 AM CDT FRI AUG 26 2016

NOTE: "FAIR" INDICATES FEW OR NO CLOUDS BELOW 12,000 FEET WITH NO
SIGNIFICANT WEATHER AND/OR OBSTRUCTIONS TO VISIBILITY.

NOTE: STATIONS NOT REPORTING VARIABLES SUCH AS SKY/WEATHER OR
PRESSURE ARE PROVIDED BY RAWS AND APRS NETWORKS AND ARE NOT UNDER
NATIONAL WEATHER SERVICE QUALITY CONTROL.

...OBSERVATIONS IN AND NEAR THE EASTERN PANHANDLE OF NEBRASKA...

CITY           SKY/WX    TMP DP  RH WIND       PRES   REMARKS
PINE RIDGE     CLOUDY    59  49  69 E7        30.19F
CHADRON        FAIR      55  48  77 E6        30.18F
ALLIANCE       FAIR      51  46  83 SE7       30.18F
SIDNEY         FAIR      51  46  83 SE8       30.20F
CRESCENT LAKE    N/A     53  47  79 SE5         N/A
$$

...OBSERVATIONS IN NORTHERN NEBRASKA AND FAR SOUTHERN SOUTH DAKOTA...

CITY           SKY/WX    TMP DP  RH WIND       PRES   REMARKS
WINNER         FAIR      53  48  83 CALM      30.19F
VALENTINE      FAIR      48  44  86 CALM      30.20F
THEDFORD       MOCLDY    52  48  87 CALM      30.21S
AINSWORTH      FAIR      53  50  90 CALM      30.20S
O`NEILL        FAIR      53  50  90 CALM      30.20R
ORD            FAIR      53  50  89 CALM      30.17F
BROKEN BOW     FAIR      50  49  96 CALM      30.18F
BUTTE            N/A     57  51  80 NE6         N/A
HALSEY           N/A     56  49  76 E3          N/A
EWING            N/A     53  51  93 CALM        N/A
$$

...OBSERVATIONS IN SOUTHWEST NEBRASKA AND FAR NORTHEAST COLORADO...

CITY           SKY/WX    TMP DP  RH WIND       PRES   REMARKS
WRAY           FAIR      55  48  76 SE3       30.19
HOLYOKE        FAIR      54  48  82 E5        30.21S
IMPERIAL       FAIR      55  51  86 SE8       30.18F
OGALLALA       FAIR      58  51  77 SE3       30.18F
NORTH PLATTE   FAIR      54  51  90 E3        30.19S
MCCOOK         FAIR      59  53  80 CALM      30.17F
LEXINGTON      FAIR      55  53  92 CALM      30.18F
STAPLETON        N/A     53  50  91 CALM        N/A
GOTHENBURG       N/A     56  51  83 CALM        N/A
CALLAWAY         N/A     51  49  95 E3          N/A
$$

...OBSERVATIONS IN CENTRAL LINCOLN COUNTY AREA...

CITY           SKY/WX    TMP DP  RH WIND       PRES   REMARKS
N.P. AIRPORT   FAIR      54  51  90 E3        30.19S
N.P. DOWNTOWN    N/A     58  53  84 CALM        N/A
N.P. SOUTHEAST   N/A     56  52  87 CALM        N/A
N.P. HILLCREST   N/A     56  52  88 E9          N/A
$$

...SOME OBSERVATIONS FROM AROUND THE REGION...

CITY           SKY/WX    TMP DP  RH WIND       PRES   REMARKS
DENVER         CLOUDY    52  47  83 S8        30.18F
LARAMIE        CLOUDY    48  42  80 S8        30.24F
CHEYENNE       FAIR      52  46  80 S7        30.21F
SCOTTSBLUFF    FAIR      56  48  74 E9        30.17F
RAPID CITY     LGT RAIN  53  46  77 SE7       30.20F
BISMARCK       FAIR      47  44  90 CALM      30.14S
PIERRE         FAIR      48  45  89 CALM      30.16F
SIOUX FALLS    FAIR      53  52  96 CALM      30.17F
OMAHA          FAIR      61  57  87 N8        30.14F
GRAND ISLAND   FAIR      55  53  93 CALM      30.17F
KANSAS CITY    LGT RAIN  69  64  84 NE7       30.11R
WICHITA        TSTM      72  69  90 SE10      30.08R
OKLAHOMA CITY  MOCLDY    72  68  87 N9        30.10R
DALLAS         MOCLDY    79  72  79 S10       30.04F
AMARILLO       FAIR      60  59  96 S3        30.16F
DODGE CITY     MOCLDY    64  62  93 NE6       30.14F
HAYS           FAIR      63  54  72 NE8       30.13F
GOODLAND       FAIR      55  51  86 SE5       30.19F
$$




USA.gov is the U.S. government's official web portal to all federal, state and local government web resources and services.